Location: Unspecified
(50.0077°N, 36.2988°E)
Time: 21:45:39
(UTC+00:00)

ISS - Pass Details

Date: 25 September 2020
Orbit: 417 x 420 km, 51.6° (Epoch: 27 October)

Event Time Altitude Azimuth Distance (km) Brightness Sun altitude
Rises 17:28:40 0° 277° (W) 2,369 1.4 -20.1°
Reaches altitude 10° 17:30:47 10° 280° (W) 1,505 0.2 -20.4°
Enters shadow 17:34:05 64° 355° (N) 471 -3.5 -20.9°
